STARLINK-1774 (46680 NORAD) Tracking and Keplerian Element Data

This shows tracking and keplerian element data for the satellite.

Feedback or suggestion? Click here.




ElementValue
Catalog46680
NameSTARLINK-1774
Epoch Orbit1458
Epoch Day18.25002315
Epoch Year2021
RAAN40.2878
Inclination53.0558
Eccentricity0.0001574
Argument of Perigee53.2301
Mean Anonmoly69.872
Mean Motion15.06417436
Decay Rate-0.00032886
L11 46680U 20073L 21018.25002315 -.00032886 00000-0 -21980-2 0 9997
L22 46680 53.0558 40.2878 0001574 53.2301 69.8720 15.06417436 14589

Live tracking and technical data element details for STARLINK-1774 (NORAD 46680). STARLINK-1774 can be tracked NOW for your location showing map with azimuth and elevation plus other details from your city location.

Track the satellite on the map from your city or location and see movement details for azimuth, elevation, latitude, longitude, range, height, and movement on the map or in text.







IsCatalogInMostPopularTable: catalog: 46680, numindb: 29
Update: records affected: 1



GetName: 46680 STARLINK-1774

Hit Count: updated at: Tue, 19 Jan 2021 03:09:43 GMT